| time (UTC) | temp F | wind direction | speed knots | gust knots | rain 1hr in | rain 24hr in | rain mn in | humidity % | barometer mb |
| 20260507221802 | 50 | 197 | 3.5 | 7.0 | 0.00 | 0.00 | 0.00 | 74 | |
| 20260507220902 | 50 | 185 | 3.5 | 7.0 | 0.00 | 0.00 | 0.00 | 74 | |
| 20260507220002 | 51 | 181 | 4.3 | 11.3 | 0.00 | 0.00 | 0.00 | 73 | |
| 20260507215402 | 51 | 166 | 3.5 | 7.0 | 0.00 | 0.00 | 0.00 | 73 | |
| 20260507214502 | 51 | 166 | 4.3 | 10.4 | 0.00 | 0.00 | 0.00 | 73 | |
| 20260507213602 | 51 | 154 | 4.3 | 11.3 | 0.00 | 0.00 | 0.00 | 74 | |
| 20260507212702 | 51 | 147 | 3.5 | 9.6 | 0.00 | 0.00 | 0.00 | 74 | |
| 20260507211802 | 51 | 156 | 3.5 | 7.0 | 0.00 | 0.00 | 0.00 | 74 | |
| 20260507210923 | 51 | 159 | 3.5 | 9.6 | 0.00 | 0.00 | 0.00 | 74 | |
| 20260507210002 | 51 | 160 | 4.3 | 12.2 | 0.00 | 0.00 | 0.00 | 74 | |
| 20260507205402 | 51 | 158 | 4.3 | 12.2 | 0.00 | 0.00 | 0.00 | 74 | |
| 20260507204502 | 51 | 155 | 4.3 | 10.4 | 0.00 | 0.00 | 0.00 | 74 | |
| 20260507203602 | 51 | 153 | 3.5 | 9.6 | 0.00 | 0.00 | 0.00 | 74 | |
| 20260507202702 | 50 | 153 | 3.5 | 9.6 | 0.00 | 0.00 | 0.00 | 74 | |
| 20260507201802 | 51 | 165 | 2.6 | 6.1 | 0.00 | 0.00 | 0.00 | 74 | |
| 20260507200902 | 51 | 167 | 2.6 | 5.2 | 0.00 | 0.00 | 0.00 | 74 | |
| 20260507200002 | 51 | 170 | 2.6 | 7.0 | 0.00 | 0.00 | 0.00 | 73 | |
| 20260507195402 | 51 | 181 | 3.5 | 7.0 | 0.00 | 0.00 | 0.00 | 73 | |
| 20260507194502 | 51 | 163 | 1.7 | 6.1 | 0.00 | 0.00 | 0.00 | 73 | |
| 20260507193602 | 51 | 154 | 1.7 | 6.1 | 0.00 | 0.00 | 0.00 | 72 | |
| 20260507192702 | 51 | 165 | 2.6 | 5.2 | 0.00 | 0.00 | 0.00 | 72 | |
| 20260507191802 | 52 | 159 | 2.6 | 5.2 | 0.00 | 0.00 | 0.00 | 71 | |
| 20260507190902 | 52 | 186 | 1.7 | 5.2 | 0.00 | 0.00 | 0.00 | 70 | |
| 20260507190003 | 52 | 196 | 2.6 | 6.1 | 0.00 | 0.00 | 0.00 | 70 | |
| 20260507185423 | 52 | 196 | 3.5 | 6.1 | 0.00 | 0.00 | 0.00 | 70 | |
| 20260507184502 | 52 | 195 | 5.2 | 9.6 | 0.00 | 0.00 | 0.00 | 69 | |
| 20260507183602 | 52 | 192 | 5.2 | 10.4 | 0.00 | 0.00 | 0.00 | 69 | |
| 20260507182702 | 53 | 186 | 5.2 | 13.9 | 0.00 | 0.00 | 0.00 | 68 | |
| 20260507181802 | 53 | 190 | 6.1 | 14.8 | 0.00 | 0.00 | 0.00 | 68 | |
| 20260507180902 | 53 | 178 | 6.1 | 13.9 | 0.00 | 0.00 | 0.00 | 67 | |
| 20260507180002 | 53 | 175 | 5.2 | 12.2 | 0.00 | 0.00 | 0.00 | 67 | |
| 20260507175402 | 54 | 180 | 5.2 | 12.2 | 0.00 | 0.00 | 0.00 | 66 | |
| 20260507174502 | 54 | 191 | 4.3 | 11.3 | 0.00 | 0.00 | 0.00 | 67 | |
| 20260507173603 | 54 | 183 | 5.2 | 14.8 | 0.00 | 0.00 | 0.00 | 65 | |
| 20260507172723 | 54 | 196 | 9.6 | 19.1 | 0.00 | 0.00 | 0.00 | 63 | |
| 20260507171802 | 55 | 193 | 11.3 | 22.6 | 0.00 | 0.00 | 0.00 | 62 | |
| 20260507170923 | 54 | 193 | 7.8 | 22.6 | 0.00 | 0.00 | 0.00 | 63 | |
| 20260507170002 | 54 | 190 | 8.7 | 15.6 | 0.00 | 0.00 | 0.00 | 63 | |
| 20260507165402 | 55 | 198 | 8.7 | 20.9 | 0.00 | 0.00 | 0.00 | 63 | |
| 20260507164502 | 55 | 196 | 7.0 | 16.5 | 0.00 | 0.00 | 0.00 | 65 | |
| 20260507163602 | 55 | 197 | 7.0 | 16.5 | 0.00 | 0.00 | 0.00 | 64 | |
| 20260507162702 | 54 | 200 | 8.7 | 20.0 | 0.00 | 0.00 | 0.00 | 63 | |
| 20260507161802 | 54 | 200 | 8.7 | 19.1 | 0.00 | 0.00 | 0.00 | 64 | |
| 20260507160902 | 55 | 194 | 7.8 | 17.4 | 0.00 | 0.00 | 0.00 | 63 | |
| 20260507160023 | 55 | 192 | 7.0 | 17.4 | 0.00 | 0.00 | 0.00 | 64 | |
| 20260507155402 | 55 | 196 | 6.1 | 11.3 | 0.00 | 0.00 | 0.00 | 65 | |
| 20260507154502 | 54 | 194 | 6.1 | 14.8 | 0.00 | 0.00 | 0.00 | 66 | |
| 20260507153603 | 54 | 197 | 7.0 | 14.8 | 0.00 | 0.00 | 0.00 | 66 | |
| 20260507152702 | 54 | 196 | 7.8 | 17.4 | 0.00 | 0.00 | 0.00 | 67 | |
| 20260507151802 | 54 | 199 | 6.1 | 12.2 | 0.00 | 0.00 | 0.00 | 68 | |
| 20260507150902 | 54 | 199 | 7.8 | 15.6 | 0.00 | 0.00 | 0.00 | 68 | |
| 20260507150002 | 54 | 209 | 7.8 | 14.8 | 0.00 | 0.00 | 0.00 | 67 | |
| 20260507145403 | 54 | 207 | 9.6 | 15.6 | 0.00 | 0.00 | 0.00 | 67 | |
| 20260507144502 | 54 | 203 | 6.1 | 12.2 | 0.00 | 0.00 | 0.00 | 67 | |
| 20260507143602 | 53 | 203 | 8.7 | 16.5 | 0.00 | 0.00 | 0.00 | 69 | |
| 20260507142703 | 53 | 199 | 8.7 | 16.5 | 0.00 | 0.00 | 0.00 | 68 | |
| 20260507141802 | 53 | 194 | 7.8 | 16.5 | 0.00 | 0.00 | 0.00 | 68 | |
| 20260507140903 | 53 | 200 | 7.8 | 16.5 | 0.00 | 0.00 | 0.00 | 68 | |
| 20260507140002 | 53 | 200 | 8.7 | 16.5 | 0.00 | 0.00 | 0.00 | 68 | |
| 20260507135423 | 53 | 196 | 8.7 | 15.6 | 0.00 | 0.00 | 0.00 | 66 | |
| 20260507134502 | 54 | 198 | 7.8 | 13.9 | 0.00 | 0.00 | 0.00 | 67 | |
| 20260507133602 | 54 | 208 | 8.7 | 16.5 | 0.00 | 0.00 | 0.00 | 65 | |
| 20260507132724 | 54 | 210 | 7.8 | 16.5 | 0.00 | 0.00 | 0.00 | 66 | |
| 20260507131802 | 54 | 215 | 9.6 | 16.5 | 0.00 | 0.00 | 0.00 | 65 | |
| 20260507130903 | 54 | 207 | 6.1 | 13.9 | 0.00 | 0.00 | 0.00 | 66 | |
| 20260507130003 | 54 | 257 | 4.3 | 7.0 | 0.00 | 0.00 | 0.00 | 69 | |
| 20260507125423 | 53 | 240 | 5.2 | 9.6 | 0.00 | 0.00 | 0.00 | 70 | |
| 20260507124523 | 53 | 230 | 7.8 | 11.3 | 0.00 | 0.00 | 0.00 | 67 | |
| 20260507123602 | 53 | 207 | 6.1 | 11.3 | 0.00 | 0.00 | 0.00 | 64 | |
| 20260507122703 | 54 | 211 | 4.3 | 13.9 | 0.00 | 0.00 | 0.00 | 67 | |
| 20260507121803 | 53 | 185 | 4.3 | 14.8 | 0.00 | 0.00 | 0.00 | 67 | |
| 20260507120902 | 53 | 177 | 6.1 | 14.8 | 0.00 | 0.00 | 0.00 | 68 | |
| 20260507120003 | 54 | 175 | 7.0 | 14.8 | 0.00 | 0.00 | 0.00 | 64 | |
| 20260507115402 | 55 | 172 | 5.2 | 14.8 | 0.00 | 0.00 | 0.00 | 65 | |
| 20260507114524 | 55 | 182 | 4.3 | 11.3 | 0.00 | 0.00 | 0.00 | 65 | |
| 20260507113603 | 54 | 178 | 5.2 | 12.2 | 0.00 | 0.00 | 0.00 | 68 | |
| 20260507112702 | 54 | 165 | 5.2 | 14.8 | 0.00 | 0.00 | 0.00 | 67 | |
| 20260507111803 | 53 | 184 | 7.8 | 14.8 | 0.00 | 0.00 | 0.00 | 67 | |
| 20260507110902 | 54 | 179 | 5.2 | 10.4 | 0.00 | 0.00 | 0.00 | 67 | |
| 20260507110003 | 54 | 184 | 6.1 | 12.2 | 0.00 | 0.00 | 0.00 | 67 | |
| 20260507105402 | 53 | 187 | 7.0 | 15.6 | 0.00 | 0.00 | 0.00 | 68 | |
| 20260507104503 | 53 | 175 | 7.0 | 15.6 | 0.00 | 0.00 | 0.00 | 69 | |
| 20260507103602 | 52 | 164 | 6.1 | 16.5 | 0.00 | 0.00 | 0.00 | 68 | |
| 20260507102702 | 52 | 168 | 6.1 | 14.8 | 0.00 | 0.00 | 0.00 | 69 | |
| 20260507101802 | 51 | 167 | 6.1 | 13.9 | 0.00 | 0.00 | 0.00 | 69 | |
| 20260507100903 | 51 | 172 | 7.0 | 15.6 | 0.00 | 0.00 | 0.00 | 69 | |
| 20260507100023 | 50 | 167 | 7.0 | 14.8 | 0.00 | 0.00 | 0.00 | 69 | |
| 20260507095403 | 50 | 166 | 7.0 | 15.6 | 0.00 | 0.00 | 0.00 | 69 | |
| 20260507094502 | 50 | 179 | 8.7 | 17.4 | 0.00 | 0.00 | 0.00 | 69 | |
| 20260507093603 | 50 | 184 | 9.6 | 20.9 | 0.00 | 0.00 | 0.00 | 68 | |
| 20260507092703 | 50 | 185 | 8.7 | 20.9 | 0.00 | 0.00 | 0.00 | 69 | |
| 20260507091803 | 50 | 163 | 7.8 | 17.4 | 0.00 | 0.00 | 0.00 | 68 | |
| 20260507090903 | 50 | 165 | 7.8 | 15.6 | 0.00 | 0.00 | 0.00 | 68 | |
| 20260507090006 | 51 | 160 | 8.7 | 19.1 | 0.00 | 0.00 | 0.00 | 68 | |
| 20260507085403 | 51 | 161 | 8.7 | 20.0 | 0.00 | 0.00 | 0.00 | 67 | |
| 20260507084524 | 51 | 159 | 7.8 | 20.0 | 0.00 | 0.00 | 0.00 | 67 | |
| 20260507083603 | 51 | 165 | 8.7 | 17.4 | 0.00 | 0.00 | 0.00 | 66 | |
| 20260507082703 | 51 | 167 | 7.8 | 20.9 | 0.00 | 0.00 | 0.00 | 66 | |
| 20260507081803 | 51 | 156 | 9.6 | 20.0 | 0.00 | 0.00 | 0.00 | 66 | |
| 20260507080903 | 50 | 158 | 7.0 | 15.6 | 0.00 | 0.00 | 0.00 | 67 | |
| 20260507080003 | 49 | 160 | 7.8 | 16.5 | 0.00 | 0.00 | 0.00 | 67 | |
| 20260507075403 | 50 | 158 | 7.0 | 14.8 | 0.00 | 0.00 | 0.00 | 67 | |
| 20260507074502 | 49 | 155 | 7.8 | 19.1 | 0.00 | 0.00 | 0.00 | 68 | |
| 20260507073602 | 48 | 160 | 7.8 | 22.6 | 0.00 | 0.00 | 0.00 | 68 | |
| 20260507072702 | 47 | 162 | 7.8 | 16.5 | 0.00 | 0.00 | 0.00 | 68 | |
| 20260507071824 | 47 | 160 | 8.7 | 20.0 | 0.00 | 0.00 | 0.00 | 68 | |
| 20260507070903 | 47 | 159 | 7.8 | 15.6 | 0.00 | 0.00 | 0.00 | 70 | |
| 20260507070004 | 46 | 157 | 7.0 | 15.6 | 0.00 | 0.00 | 0.00 | 70 | |
| 20260507065403 | 46 | 165 | 6.1 | 15.6 | 0.00 | 0.00 | 0.00 | 70 | |
| 20260507064503 | 46 | 159 | 6.1 | 20.0 | 0.00 | 0.00 | 0.00 | 71 | |
| 20260507063624 | 45 | 160 | 6.1 | 12.2 | 0.00 | 0.00 | 0.00 | 71 | |
| 20260507062703 | 45 | 154 | 4.3 | 13.9 | 0.00 | 0.00 | 0.00 | 72 | |
| 20260507061824 | 44 | 161 | 3.5 | 10.4 | 0.00 | 0.00 | 0.00 | 74 | |
| 20260507060903 | 43 | 189 | 2.6 | 6.1 | 0.00 | 0.00 | 0.00 | 76 | |
| 20260507060003 | 42 | 219 | 2.6 | 7.0 | 0.00 | 0.00 | 0.00 | 77 | |
| 20260507055403 | 42 | 266 | 1.7 | 6.1 | 0.00 | 0.00 | 0.00 | 78 | |
| 20260507054503 | 41 | 289 | 0.9 | 3.5 | 0.00 | 0.00 | 0.00 | 79 | |
| 20260507053603 | 41 | 289 | 0.9 | 4.3 | 0.00 | 0.00 | 0.00 | 79 | |
| 20260507052703 | 41 | 322 | 1.7 | 4.3 | 0.00 | 0.00 | 0.00 | 79 | |
| 20260507051803 | 41 | 355 | 0.9 | 1.7 | 0.00 | 0.00 | 0.00 | 80 | |
| 20260507050924 | 40 | 359 | 2.6 | 5.2 | 0.00 | 0.00 | 0.00 | 80 | |
| 20260507050003 | 40 | 10 | 3.5 | 5.2 | 0.00 | 0.00 | 0.00 | 80 | |
| 20260507045403 | 40 | 5 | 3.5 | 6.1 | 0.00 | 0.00 | 0.00 | 80 | |
| 20260507044503 | 41 | 352 | 2.6 | 6.1 | 0.00 | 0.00 | 0.00 | 79 | |
| 20260507043603 | 41 | 346 | 0.9 | 3.5 | 0.00 | 0.00 | 0.00 | 79 | |
| 20260507042703 | 41 | 296 | 1.7 | 4.3 | 0.00 | 0.00 | 0.00 | 78 | |
| 20260507041803 | 41 | 267 | 1.7 | 4.3 | 0.00 | 0.00 | 0.00 | 77 | |
| 20260507040903 | 42 | 306 | 2.6 | 5.2 | 0.00 | 0.00 | 0.00 | 78 | |
| 20260507040003 | 42 | 357 | 1.7 | 4.3 | 0.00 | 0.00 | 0.00 | 77 | |
| 20260507035403 | 42 | 329 | 1.7 | 4.3 | 0.00 | 0.00 | 0.00 | 76 | |
| 20260507034503 | 42 | 309 | 0.9 | 4.3 | 0.00 | 0.00 | 0.00 | 76 | |
| 20260507033603 | 43 | 299 | 1.7 | 4.3 | 0.00 | 0.00 | 0.00 | 75 | |
| 20260507032703 | 43 | 197 | 1.7 | 8.7 | 0.00 | 0.00 | 0.00 | 74 | |
| 20260507031803 | 43 | 177 | 2.6 | 11.3 | 0.00 | 0.00 | 0.00 | 74 | |
| 20260507030903 | 43 | 358 | 2.6 | 4.3 | 0.00 | 0.00 | 0.00 | 74 | |
| 20260507030003 | 43 | 144 | 3.5 | 10.4 | 0.00 | 0.00 | 0.00 | 74 | |
| 20260507025403 | 43 | 244 | 2.6 | 10.4 | 0.00 | 0.00 | 0.00 | 75 | |
| 20260507024524 | 43 | 182 | 2.6 | 9.6 | 0.00 | 0.00 | 0.00 | 75 | |
| 20260507023603 | 43 | 169 | 2.6 | 9.6 | 0.00 | 0.00 | 0.00 | 74 | |
| 20260507022703 | 43 | 177 | 2.6 | 12.2 | 0.00 | 0.00 | 0.00 | 74 | |
| 20260507021803 | 43 | 164 | 1.7 | 4.3 | 0.00 | 0.00 | 0.00 | 74 | |
| 20260507020903 | 43 | 139 | 2.6 | 6.1 | 0.00 | 0.00 | 0.00 | 75 | |
| 20260507020003 | 43 | 109 | 2.6 | 10.4 | 0.00 | 0.00 | 0.00 | 76 | |
| 20260507015403 | 42 | 119 | 1.7 | 6.1 | 0.00 | 0.00 | 0.00 | 77 | |
| 20260507014503 | 42 | 145 | 1.7 | 7.0 | 0.00 | 0.00 | 0.00 | 77 | |
| 20260507013603 | 41 | 144 | 1.7 | 4.3 | 0.00 | 0.00 | 0.00 | 77 | |
| 20260507012724 | 41 | 145 | 0.9 | 3.5 | 0.00 | 0.00 | 0.00 | 77 | |
| 20260507011803 | 41 | 141 | 1.7 | 4.3 | 0.00 | 0.00 | 0.00 | 77 | |
| 20260507010004 | 40 | 105 | 0.9 | 3.5 | 0.00 | 0.00 | 0.00 | 77 | |
| 20260507005424 | 40 | 92 | 0.9 | 3.5 | 0.00 | 0.00 | 0.00 | 77 | |
| 20260507004503 | 40 | 77 | 0.9 | 4.3 | 0.00 | 0.00 | 0.00 | 78 | |
| 20260507003603 | 39 | 180 | 0.9 | 3.5 | 0.00 | 0.00 | 0.00 | 79 | |
| 20260507002703 | 39 | 180 | 0.9 | 3.5 | 0.00 | 0.00 | 0.00 | 78 | |
| 20260507001803 | 40 | 158 | 0.9 | 3.5 | 0.00 | 0.00 | 0.00 | 76 | |
| 20260507000903 | 40 | 148 | 1.7 | 3.5 | 0.00 | 0.00 | 0.00 | 75 | |
| 20260507000024 | 40 | 148 | 0.9 | 3.5 | 0.00 | 0.00 | 0.00 | 74 | |
| 20260506235404 | 40 | 148 | 0.9 | 1.7 | 0.00 | 0.00 | 0.00 | 74 | |
| 20260506234503 | 40 | 144 | 0.9 | 3.5 | 0.00 | 0.00 | 0.00 | 75 | |
| 20260506233602 | 40 | 137 | 0.0 | 1.7 | 0.00 | 0.00 | 0.00 | 74 | |
| 20260506232702 | 40 | 138 | 0.9 | 1.7 | 0.00 | 0.00 | 0.00 | 74 | |
| 20260506231823 | 40 | 138 | 0.9 | 3.5 | 0.00 | 0.00 | 0.00 | 74 | |
| 20260506230902 | 40 | 138 | 0.9 | 3.5 | 0.00 | 0.00 | 0.00 | 73 | |
| 20260506230002 | 41 | 137 | 0.9 | 4.3 | 0.00 | 0.00 | 0.00 | 73 | |
| 20260506225402 | 41 | 126 | 0.9 | 4.3 | 0.00 | 0.00 | 0.00 | 73 | |
| 20260506224502 | 41 | 115 | 0.9 | 4.3 | 0.00 | 0.00 | 0.00 | 72 | |
| 20260506223602 | 41 | 5 | 0.9 | 4.3 | 0.00 | 0.00 | 0.00 | 72 | |
| 20260506222702 | 41 | 304 | 0.0 | 0.9 | 0.00 | 0.00 | 0.00 | 71 |